GW4193 Weather Reports


time (UTC)temp
F
wind
direction
speed
knots
gust
knots
rain 1hr
in
rain 24hr
in
rain mn
in
humidity
%
barometer
mb
20260508170006 64 202 1.7 12.2 0.00 0.00 0.00 38 1015.8
20260508164513 65 268 6.1 11.3 0.00 0.00 0.00 38 1016.2
20260508163028 64 124 1.7 9.6 0.00 0.00 0.00 39 1016.4
20260508161522 63 184 1.7 7.0 0.00 0.00 0.00 39 1016.8
20260508160006 63 195 3.5 6.1 0.00 0.00 0.00 45 1017.0
20260508154532 61 202 0.9 5.2 0.00 0.00 0.00 49 1017.2
20260508153016 61 275 0.0 6.1 0.00 0.00 0.00 52 1017.2
20260508151522 59 219 3.5 6.1 0.00 0.00 0.00 52 1017.2
20260508150033 59 307 5.2 8.7 0.00 0.00 0.00 49 1017.1
20260508144510 58 207 0.9 3.5 0.00 0.00 0.00 51 1017.1
20260508143014 56 263 0.9 3.5 0.00 0.00 0.00 53 1017.1
20260508141526 55 212 1.7 3.5 0.00 0.00 0.00 56 1017.0
20260508140026 54 191 1.7 5.2 0.00 0.00 0.00 58 1017.2
20260508134526 53 210 2.6 8.7 0.00 0.00 0.00 60 1017.1
20260508133010 51 209 2.6 6.1 0.00 0.00 0.00 64 1017.2
20260508131516 49 214 1.7 5.2 0.00 0.00 0.00 67 1017.2
20260508130025 49 188 2.6 5.2 0.00 0.00 0.00 69 1017.4
20260508124533 47 179 1.7 5.2 0.00 0.00 0.00 72 1017.4
20260508123043 46 199 0.9 2.6 0.00 0.00 0.00 78 1017.2
20260508121530 44 201 1.7 4.3 0.00 0.00 0.00 81 1017.1
20260508120017 43 129 0.0 1.7 0.00 0.00 0.00 84 1017.1
20260508114520 42 357 0.0 1.7 0.00 0.00 0.00 88 1017.0
20260508113025 40 320 0.0 0.0 0.00 0.00 0.00 92 1017.0
20260508111534 39 321 0.0 0.0 0.00 0.00 0.00 92 1016.6
20260508110019 38 320 0.0 0.0 0.00 0.00 0.00 92 1016.5
20260508104520 38 320 0.0 0.0 0.00 0.00 0.00 92 1016.3
20260508103022 37 320 0.0 0.0 0.00 0.00 0.00 93 1016.1
20260508101526 37 320 0.0 0.0 0.00 0.00 0.00 93 1016.2
20260508100030 37 345 0.0 0.0 0.00 0.00 0.00 93 1016.0
20260508094519 37 345 0.0 0.0 0.00 0.00 0.00 93 1016.1
20260508093022 37 345 0.0 0.0 0.00 0.00 0.00 93 1016.1
20260508091507 37 345 0.0 0.0 0.00 0.00 0.00 93 1016.1
20260508090023 37 345 0.0 0.0 0.00 0.00 0.00 93 1016.0
20260508084514 37 345 0.0 0.0 0.00 0.00 0.00 93 1015.9
20260508083020 37 345 0.0 0.0 0.00 0.00 0.00 93 1015.9
20260508081504 37 345 0.0 0.0 0.00 0.00 0.00 92 1015.9
20260508080007 38 345 0.0 0.0 0.00 0.00 0.00 92 1015.9
20260508074512 38 345 0.0 0.0 0.00 0.00 0.00 92 1016.0
20260508073016 38 345 0.0 0.0 0.00 0.00 0.00 92 1015.9
20260508071526 38 345 0.0 0.0 0.00 0.00 0.00 92 1015.9
20260508070023 38 345 0.0 0.0 0.00 0.00 0.00 92 1015.9
20260508064511 39 345 0.0 0.0 0.00 0.00 0.00 92 1015.9
20260508063012 39 345 0.0 0.0 0.00 0.00 0.00 91 1015.9
20260508061522 39 345 0.0 0.0 0.00 0.00 0.00 91 1016.1
20260508060025 39 345 0.0 0.0 0.00 0.00 0.00 91 1016.3
20260508054526 40 345 0.0 0.0 0.00 0.00 0.00 90 1016.3
20260508053016 40 345 0.0 0.0 0.00 0.00 0.00 90 1016.2
20260508051517 40 345 0.0 0.0 0.00 0.00 0.00 89 1016.1
20260508050019 41 345 0.0 1.7 0.00 0.00 0.00 88 1015.9
20260508044522 41 345 0.0 0.0 0.00 0.00 0.00 87 1016.0
20260508043026 42 345 0.0 0.0 0.00 0.00 0.00 86 1016.0
20260508041511 43 345 0.0 0.0 0.00 0.00 0.00 85 1016.0
20260508040020 43 345 0.0 0.0 0.00 0.00 0.00 83 1016.1
20260508034536 44 345 0.0 0.0 0.00 0.00 0.00 80 1016.1
20260508033026 45 345 0.0 0.0 0.00 0.00 0.00 76 1016.1
20260508031534 46 345 0.0 0.0 0.00 0.00 0.00 66 1016.0
20260508030017 47 345 0.0 0.0 0.00 0.00 0.00 67 1016.0
20260508024545 48 345 0.0 0.0 0.00 0.00 0.00 64 1015.7
20260508023023 48 345 0.0 0.0 0.00 0.00 0.00 63 1015.5
20260508021528 49 345 0.0 0.0 0.00 0.00 0.00 55 1015.3
20260508020012 50 345 0.0 0.0 0.00 0.00 0.00 54 1015.3
20260508014522 51 345 0.0 1.7 0.00 0.00 0.00 58 1015.0
20260508013003 52 345 0.0 0.0 0.00 0.00 0.00 46 1014.9
20260508011507 53 345 0.0 0.0 0.00 0.00 0.00 47 1014.6
20260508010012 54 345 0.0 1.7 0.00 0.00 0.00 43 1014.5
20260508004539 55 345 0.0 0.0 0.00 0.00 0.00 42 1014.4
20260508003018 56 345 0.0 0.0 0.00 0.00 0.00 43 1014.3
20260508001512 58 345 0.0 0.0 0.00 0.00 0.00 43 1014.3
20260508000005 59 345 0.0 1.7 0.00 0.01 0.00 41 1014.2
20260507234511 60 340 0.0 6.1 0.00 0.01 0.00 39 1013.9
20260507233017 60 342 0.0 2.6 0.00 0.01 0.00 37 1013.6
20260507231523 61 316 0.9 4.3 0.00 0.01 0.00 39 1013.6
20260507230021 62 328 1.7 6.1 0.00 0.01 0.00 35 1013.5
20260507224510 63 288 0.9 2.6 0.00 0.01 0.00 38 1013.7
20260507223011 63 179 0.0 3.5 0.00 0.02 0.00 40 1013.6
20260507221518 63 236 0.9 6.1 0.00 0.02 0.00 37 1013.5
20260507220024 63 360 0.9 6.1 0.00 0.02 0.00 38 1013.2
20260507214506 64 243 0.9 7.0 0.00 0.02 0.00 36 1013.1
20260507213016 64 246 1.7 7.8 0.00 0.02 0.00 36 1013.0
20260507211514 63 359 1.7 7.8 0.00 0.02 0.00 35 1012.7
20260507210025 64 14 3.5 8.7 0.00 0.02 0.00 38 1012.7
20260507204523 65 6 3.5 5.2 0.00 0.02 0.00 36 1012.6
20260507203010 63 40 2.6 5.2 0.00 0.02 0.00 39 1012.7
20260507201511 63 27 0.0 6.1 0.00 0.02 0.00 41 1012.7
20260507200017 64 106 0.9 7.0 0.00 0.02 0.00 43 1012.8
20260507194529 64 25 0.9 5.2 0.00 0.02 0.00 48 1012.9
20260507193025 64 187 2.6 7.0 0.00 0.02 0.00 43 1012.9
20260507191515 64 13 2.6 7.0 0.00 0.02 0.00 39 1013.0
20260507190015 62 268 1.7 4.3 0.00 0.02 0.00 44 1013.1
20260507184523 61 8 2.6 5.2 0.00 0.02 0.00 49 1013.1
20260507183022 61 62 1.7 7.0 0.00 0.02 0.00 48 1013.4
20260507181525 59 27 0.0 5.2 0.00 0.02 0.00 51 1013.5
20260507180017 61 359 0.9 3.5 0.00 0.02 0.00 48 1013.6
20260507174528 60 264 2.6 7.8 0.00 0.02 0.00 54 1013.7
20260507173046 60 250 1.7 7.0 0.00 0.02 0.00 51 1013.9
20260507171528 60 58 0.9 5.2 0.00 0.03 0.00 55 1013.8